Overview Statistics Trail Chart Weather Telemetry Raw packets
 

This is the latest recevied weather packets stored in our database for station/object N0HOT. If no packets are shown the sender has not sent any weather packets the latest 10 day(s).

<< 55 56 57 58 59 60 61 >>
Time Temp. Humidity Pressure Rain* Wind** Luminosity Snow
1788282885 30.56° C 55% 1013.9 hPa 0 mm - 684 W/m² -
1788282584 30.56° C 53% 1013.9 hPa 0 mm - 685 W/m² -
1788282279 30° C 56% 1013.9 hPa 0 mm - 696 W/m² -
1788281978 30° C 58% 1013.9 hPa 0 mm - 707 W/m² -
1788281673 30° C 57% 1013.9 hPa 0 mm - 651 W/m² -
1788281369 29.44° C 57% 1013.9 hPa 0 mm - 669 W/m² -
1788281064 29.44° C 59% 1013.9 hPa 0 mm - 648 W/m² -
1788280759 29.44° C 62% 1013.9 hPa 0 mm - 647 W/m² -
1788280454 28.89° C 63% 1013.9 hPa 0 mm - 721 W/m² -
1788280149 28.89° C 63% 1013.9 hPa 0 mm - 547 W/m² -
1788279849 28.89° C 64% 1013.9 hPa 0 mm - 260 W/m² -
1788279548 28.33° C 64% 1014.3 hPa 0 mm - 458 W/m² -
1788279247 28.33° C 64% 1013.9 hPa 0 mm - 393 W/m² -
1788278942 27.78° C 64% 1013.9 hPa 0 mm - 385 W/m² -
1788278639 27.22° C 64% 1013.9 hPa 0 mm - 588 W/m² -
1788278338 27.22° C 68% 1013.9 hPa 0 mm - 351 W/m² -
1788278033 26.67° C 71% 1013.9 hPa 0 mm - 202 W/m² -
1788277729 26.67° C 71% 1013.9 hPa 0 mm - 375 W/m² -
1788277428 26.67° C 72% 1013.9 hPa 0 mm - 285 W/m² -
1788277123 26.67° C 74% 1014.3 hPa 0 mm - 145 W/m² -
1788276818 26.67° C 74% 1013.9 hPa 0 mm - 150 W/m² -
1788276517 26.11° C 75% 1013.9 hPa 0 mm - 228 W/m² -
1788276217 25.56° C 76% 1014.3 hPa 0 mm - 191 W/m² -
1788275912 25.56° C 76% 1014.3 hPa 0 mm - 545 W/m² -
1788275606 25° C 76% 1013.9 hPa 0 mm - 516 W/m² -

* Rain latest hour (hover to see other rain measurements)
** Current wind speed in m/s (hover to see current wind gust speed)